Voltar ao catálogo

THORAD DELTA 1 DEB

AtivoLEO
NORAD 8156·DEBRIS·🇺🇸 United States

Lançado Nov 15, 1974 de Vandenberg Space Force Base

Loading…

Próximas Passagens (próximas 24 horas)

TLE

AtualizadoSource: Space-Track

Época: Sep 14, 2026, 10:40 UTC

1 08156U 74089W   26257.44465366  .00000060  00000-0  55567-3 0  9995
2 08156 101.9413 249.7941 0053152 184.2216 331.8974 12.68307921394614

Acompanhe THORAD DELTA 1 DEB em tempo real com AllMySat

Download on the App Store